Terminal Aerodrome Forecast
Issued by NWS Grand Forks, ND

Home | Current Version | Previous Version | Text Only | Print | Product List | Glossary Off
Versions: 1 2 3 4 5 6 7 8 9 10 11 12

000
FTUS43 KFGF 251141
TAFGFK
TAF
KGFK 251141Z 2512/2612 VRB03KT P6SM OVC100
     FM251600 02007KT P6SM OVC100
     FM260000 VRB03KT P6SM BKN250=

USA.gov is the U.S. government's official web portal to all federal, state and local government web resources and services.